TimeCST,TemperatureF,Dew PointF,Humidity,Sea Level PressureIn,VisibilityMPH,Wind Direction,Wind SpeedMPH,Gust SpeedMPH,PrecipitationIn,Events,Conditions,WindDirDegrees,DateUTC
12:15 AM,17.1,10.9,77,29.93,10.0,WNW,5.8,-,N/A,,Overcast,290,2013-01-31 06:15:00
12:35 AM,17.1,10.9,77,29.93,10.0,WNW,8.1,-,N/A,,Overcast,300,2013-01-31 06:35:00
12:55 AM,17.1,10.0,74,29.93,10.0,NW,10.4,-,N/A,,Overcast,310,2013-01-31 06:55:00
1:15 AM,16.5,9.5,74,29.93,10.0,NW,10.4,-,N/A,,Overcast,320,2013-01-31 07:15:00
1:35 AM,15.8,7.7,70,29.93,10.0,NW,10.4,-,N/A,,Overcast,320,2013-01-31 07:35:00
1:55 AM,15.6,8.4,73,29.94,10.0,NW,9.2,-,N/A,,Overcast,310,2013-01-31 07:55:00
2:15 AM,15.4,7.7,71,29.94,10.0,NW,12.7,17.3,N/A,,Overcast,310,2013-01-31 08:15:00
2:35 AM,14.9,7.7,73,29.96,10.0,NW,10.4,-,N/A,,Overcast,310,2013-01-31 08:35:00
2:55 AM,14.0,7.2,74,29.95,10.0,NW,10.4,-,N/A,,Overcast,320,2013-01-31 08:55:00
3:15 AM,13.8,6.6,73,29.96,10.0,NW,13.8,-,N/A,,Overcast,310,2013-01-31 09:15:00
3:35 AM,13.5,6.6,74,29.95,10.0,NNW,12.7,18.4,N/A,,Overcast,330,2013-01-31 09:35:00
3:55 AM,12.0,5.2,74,29.96,10.0,NNW,12.7,-,N/A,,Mostly Cloudy,330,2013-01-31 09:55:00
4:15 AM,10.6,3.7,74,29.97,10.0,NNW,8.1,-,N/A,,Scattered Clouds,330,2013-01-31 10:15:00
4:35 AM,9.5,3.2,76,29.99,10.0,NW,9.2,-,N/A,,Clear,310,2013-01-31 10:35:00
4:55 AM,8.4,2.1,76,29.99,10.0,WNW,8.1,-,N/A,,Clear,300,2013-01-31 10:55:00
5:15 AM,8.6,1.2,72,30.00,10.0,NW,10.4,-,N/A,,Clear,310,2013-01-31 11:15:00
5:35 AM,8.1,1.4,74,30.00,10.0,NW,11.5,-,N/A,,Clear,310,2013-01-31 11:35:00
5:55 AM,8.1,1.4,74,30.01,10.0,NW,11.5,-,N/A,,Clear,310,2013-01-31 11:55:00
6:15 AM,8.1,0.9,72,30.02,10.0,WNW,10.4,-,N/A,,Scattered Clouds,300,2013-01-31 12:15:00
6:35 AM,7.7,0.3,72,30.03,10.0,WNW,10.4,16.1,N/A,,Scattered Clouds,300,2013-01-31 12:35:00
6:55 AM,7.5,-0.4,70,30.03,10.0,NW,10.4,-,N/A,,Clear,310,2013-01-31 12:55:00
7:15 AM,7.3,-0.4,71,30.04,10.0,NW,9.2,-,N/A,,Clear,310,2013-01-31 13:15:00
7:35 AM,7.5,-0.4,70,30.06,10.0,NW,10.4,-,N/A,,Clear,310,2013-01-31 13:35:00
7:55 AM,7.7,-0.6,69,30.07,10.0,NW,12.7,17.3,N/A,,Scattered Clouds,310,2013-01-31 13:55:00
8:15 AM,8.1,-1.3,66,30.08,10.0,NW,10.4,-,N/A,,Scattered Clouds,310,2013-01-31 14:15:00
8:35 AM,8.4,-0.8,66,30.09,10.0,NW,11.5,-,N/A,,Clear,310,2013-01-31 14:35:00
8:55 AM,9.0,-0.9,64,30.10,10.0,NW,19.6,23.0,N/A,,Clear,310,2013-01-31 14:55:00
9:15 AM,9.1,-1.7,62,30.12,10.0,NW,17.3,26.5,N/A,,Clear,310,2013-01-31 15:15:00
9:35 AM,9.1,-1.5,62,30.14,10.0,NW,17.3,25.3,N/A,,Clear,310,2013-01-31 15:35:00
9:55 AM,9.5,-1.1,62,30.15,10.0,NW,11.5,23.0,N/A,,Clear,310,2013-01-31 15:55:00
10:15 AM,9.5,-1.5,61,30.17,10.0,NW,17.3,28.8,N/A,,Clear,310,2013-01-31 16:15:00
10:35 AM,9.3,-1.3,62,30.18,7.0,NW,29.9,36.8,N/A,,Scattered Clouds,320,2013-01-31 16:35:00
10:55 AM,9.0,-1.5,63,30.20,3.0,NW,29.9,35.7,N/A,,Haze,310,2013-01-31 16:55:00
11:15 AM,8.6,-1.3,64,30.21,3.0,NW,24.2,36.8,N/A,,Haze,310,2013-01-31 17:15:00
11:35 AM,8.8,-0.8,65,30.22,4.0,WNW,23.0,31.1,N/A,,Haze,300,2013-01-31 17:35:00
11:55 AM,8.6,-2.2,62,30.23,7.0,NW,23.0,29.9,N/A,,Overcast,320,2013-01-31 17:55:00
12:15 PM,9.0,-1.5,63,30.23,7.0,NW,21.9,26.5,N/A,,Overcast,310,2013-01-31 18:15:00
12:35 PM,9.5,-0.0,65,30.24,10.0,WNW,19.6,24.2,N/A,,Mostly Cloudy,300,2013-01-31 18:35:00
12:55 PM,9.1,-0.9,64,30.25,10.0,NW,18.4,28.8,N/A,,Mostly Cloudy,310,2013-01-31 18:55:00
1:15 PM,9.3,-2.0,60,30.25,10.0,NW,19.6,29.9,N/A,,Mostly Cloudy,320,2013-01-31 19:15:00
1:35 PM,9.5,-1.5,61,30.26,10.0,WNW,18.4,27.6,N/A,,Mostly Cloudy,300,2013-01-31 19:35:00
1:55 PM,9.5,-1.8,60,30.26,10.0,NW,21.9,26.5,N/A,,Mostly Cloudy,320,2013-01-31 19:55:00
2:15 PM,9.7,-0.9,62,30.26,10.0,WNW,17.3,24.2,N/A,,Mostly Cloudy,300,2013-01-31 20:15:00
2:35 PM,9.9,-1.5,60,30.27,10.0,WNW,19.6,27.6,N/A,,Mostly Cloudy,300,2013-01-31 20:35:00
2:55 PM,9.5,-2.6,58,30.27,10.0,NW,17.3,28.8,N/A,,Scattered Clouds,310,2013-01-31 20:55:00
3:15 PM,9.9,-2.4,58,30.28,10.0,WNW,21.9,26.5,N/A,,Scattered Clouds,300,2013-01-31 21:15:00
3:35 PM,9.7,-2.4,58,30.29,10.0,NW,21.9,28.8,N/A,,Clear,320,2013-01-31 21:35:00
3:55 PM,10.0,-2.0,58,30.30,10.0,NW,15.0,23.0,N/A,,Clear,310,2013-01-31 21:55:00
4:15 PM,9.5,-2.4,59,30.30,10.0,NW,18.4,23.0,N/A,,Clear,310,2013-01-31 22:15:00
4:35 PM,9.5,-3.3,56,30.31,10.0,NW,19.6,24.2,N/A,,Clear,310,2013-01-31 22:35:00
4:55 PM,9.0,-4.0,56,30.31,10.0,NW,17.3,23.0,N/A,,Clear,310,2013-01-31 22:55:00
5:15 PM,8.2,-4.4,57,30.32,10.0,NW,15.0,23.0,N/A,,Clear,310,2013-01-31 23:15:00
5:35 PM,7.3,-5.4,56,30.32,10.0,NW,15.0,23.0,N/A,,Clear,310,2013-01-31 23:35:00
6:15 PM,5.9,-5.3,60,30.33,10.0,NW,12.7,-,N/A,,Clear,310,2013-02-01 00:15:00
6:35 PM,5.9,-5.8,59,30.34,10.0,NW,12.7,21.9,N/A,,Clear,310,2013-02-01 00:35:00
6:55 PM,5.4,-5.8,60,30.35,10.0,NW,10.4,-,N/A,,Clear,320,2013-02-01 00:55:00
7:15 PM,4.8,-5.8,62,30.35,10.0,NW,11.5,-,N/A,,Clear,320,2013-02-01 01:15:00
7:35 PM,4.5,-6.2,62,30.36,10.0,NNW,6.9,-,N/A,,Clear,330,2013-02-01 01:35:00
7:55 PM,3.9,-6.7,61,30.36,10.0,NW,8.1,-,N/A,,Clear,320,2013-02-01 01:55:00
8:15 PM,2.8,-6.9,64,30.37,10.0,NW,5.8,-,N/A,,Clear,320,2013-02-01 02:15:00
8:35 PM,1.9,-7.2,65,30.37,10.0,NW,3.5,-,N/A,,Clear,320,2013-02-01 02:35:00
8:55 PM,1.2,-7.8,66,30.38,10.0,NW,4.6,-,N/A,,Clear,310,2013-02-01 02:55:00
9:15 PM,1.0,-7.6,67,30.38,10.0,NW,5.8,-,N/A,,Clear,310,2013-02-01 03:15:00
9:35 PM,0.5,-7.8,68,30.39,10.0,West,3.5,-,N/A,,Clear,280,2013-02-01 03:35:00
9:55 PM,0.5,-7.6,69,30.40,10.0,WNW,5.8,-,N/A,,Clear,300,2013-02-01 03:55:00
10:15 PM,0.5,-7.8,68,30.40,10.0,NW,5.8,-,N/A,,Clear,310,2013-02-01 04:15:00
10:35 PM,0.3,-8.0,68,30.40,10.0,NW,4.6,-,N/A,,Clear,320,2013-02-01 04:35:00
10:55 PM,-0.2,-8.0,70,30.40,10.0,NW,4.6,-,N/A,,Clear,310,2013-02-01 04:55:00
11:15 PM,-0.4,-7.8,71,30.41,10.0,West,4.6,-,N/A,,Clear,270,2013-02-01 05:15:00
11:35 PM,-0.4,-7.8,71,30.41,10.0,West,5.8,-,N/A,,Clear,270,2013-02-01 05:35:00
11:55 PM,-1.3,-7.8,74,30.41,10.0,West,3.5,-,N/A,,Clear,280,2013-02-01 05:55:00